^^
Your Local Weather - Clay, NY Station Historical Data
Daily Summary for April 22, 2017 Units:  English    Metric   Both
« Previous Day
Next Day »
Daily Weekly Monthly Yearly Custom
  High: Low: Average:
Temperature: 49.8 °F 36.0 °F 44.9 °F
Dew Point: 41.3 °F 32.8 °F 37.1 °F
Humidity: 88% 59% 74%
Wind Speed: 5.0mph 0.0mph 2.1mph
Wind Gust: 8.0mph - -
Wind- - WNW
Pressure: 30.06 in 29.92 in -
Precipitation: 0.00 in    
Historical Graphs
 
 
Tabular Data for April 22, 2017
Time Temperature Dew Point Pressure Wind Wind Speed Wind Gust Humidity Rainfall Rate (Hourly) solar
00:04 48.6 °F 41.0 °F 29.93 in West 2.0 mph 4.0 mph 75% 0.00 in 0 W/m2
00:10 48.6 °F 41.0 °F 29.94 in WSW 2.0 mph 2.0 mph 75% 0.00 in 0 W/m2
00:16 48.5 °F 41.3 °F 29.93 in NW 1.0 mph 3.0 mph 76% 0.00 in 0 W/m2
00:22 48.4 °F 41.2 °F 29.93 in WSW 1.0 mph 1.0 mph 76% 0.00 in 0 W/m2
00:28 48.3 °F 40.7 °F 29.94 in NW 2.0 mph 3.0 mph 75% 0.00 in 0 W/m2
00:34 48.3 °F 40.7 °F 29.94 in WNW 3.0 mph 4.0 mph 75% 0.00 in 0 W/m2
00:40 48.2 °F 40.6 °F 29.94 in West 2.0 mph 2.0 mph 75% 0.00 in 0 W/m2
00:46 48.1 °F 40.9 °F 29.94 in WNW 1.0 mph 3.0 mph 76% 0.00 in 0 W/m2
00:52 48.0 °F 40.5 °F 29.94 in WSW 2.0 mph 4.0 mph 75% 0.00 in 0 W/m2
00:58 47.9 °F 40.4 °F 29.93 in WNW 3.0 mph 4.0 mph 75% 0.00 in 0 W/m2
01:04 47.8 °F 39.9 °F 29.94 in NW 3.0 mph 3.0 mph 74% 0.00 in 0 W/m2
01:10 47.8 °F 39.9 °F 29.94 in WNW 3.0 mph 4.0 mph 74% 0.00 in 0 W/m2
01:16 47.7 °F 39.8 °F 29.94 in WNW 2.0 mph 7.0 mph 74% 0.00 in 0 W/m2
01:22 47.5 °F 39.3 °F 29.94 in WNW 3.0 mph 4.0 mph 73% 0.00 in 0 W/m2
01:28 47.4 °F 39.2 °F 29.94 in NW 3.0 mph 5.0 mph 73% 0.00 in 0 W/m2
01:34 47.2 °F 39.0 °F 29.94 in WNW 1.0 mph 4.0 mph 73% 0.00 in 0 W/m2
01:40 47.0 °F 38.4 °F 29.94 in NW 2.0 mph 2.0 mph 72% 0.00 in 0 W/m2
01:46 46.9 °F 38.0 °F 29.94 in WNW 3.0 mph 4.0 mph 71% 0.00 in 0 W/m2
01:52 46.8 °F 37.9 °F 29.94 in WNW 2.0 mph 5.0 mph 71% 0.00 in 0 W/m2
01:58 46.7 °F 38.1 °F 29.94 in WNW 3.0 mph 6.0 mph 72% 0.00 in 0 W/m2
02:04 46.5 °F 38.0 °F 29.94 in WNW 3.0 mph 5.0 mph 72% 0.00 in 0 W/m2
02:10 46.3 °F 37.8 °F 29.93 in WNW 2.0 mph 2.0 mph 72% 0.00 in 0 W/m2
02:16 46.2 °F 38.0 °F 29.93 in NW 2.0 mph 3.0 mph 73% 0.00 in 0 W/m2
02:22 46.0 °F 38.2 °F 29.93 in WNW 1.0 mph 3.0 mph 74% 0.00 in 0 W/m2
02:28 46.0 °F 38.2 °F 29.93 in WNW 1.0 mph 3.0 mph 74% 0.00 in 0 W/m2
02:34 45.9 °F 38.4 °F 29.93 in WNW 1.0 mph 3.0 mph 75% 0.00 in 0 W/m2
02:40 45.8 °F 38.3 °F 29.93 in WNW 2.0 mph 2.0 mph 75% 0.00 in 0 W/m2
02:46 45.7 °F 38.2 °F 29.93 in WNW 3.0 mph 4.0 mph 75% 0.00 in 0 W/m2
02:52 45.5 °F 38.4 °F 29.93 in WNW 2.0 mph 3.0 mph 76% 0.00 in 0 W/m2
02:58 45.3 °F 38.2 °F 29.92 in WNW 2.0 mph 3.0 mph 76% 0.00 in 0 W/m2
03:04 45.1 °F 38.3 °F 29.93 in WNW 2.0 mph 5.0 mph 77% 0.00 in 0 W/m2
03:10 44.9 °F 38.5 °F 29.93 in WNW 1.0 mph 1.0 mph 78% 0.00 in 0 W/m2
03:16 44.8 °F 38.7 °F 29.93 in NW 1.0 mph 3.0 mph 79% 0.00 in 0 W/m2
03:22 44.6 °F 38.5 °F 29.93 in NW 2.0 mph 2.0 mph 79% 0.00 in 0 W/m2
03:28 44.5 °F 38.4 °F 29.93 in NW 1.0 mph 2.0 mph 79% 0.00 in 0 W/m2
03:34 44.4 °F 38.3 °F 29.93 in WNW 1.0 mph 2.0 mph 79% 0.00 in 0 W/m2
03:40 44.4 °F 38.3 °F 29.93 in WNW 1.0 mph 1.0 mph 79% 0.00 in 0 W/m2
03:46 44.3 °F 38.5 °F 29.93 in WNW 1.0 mph 1.0 mph 80% 0.00 in 0 W/m2
03:52 44.3 °F 38.2 °F 29.93 in Calm   2.0 mph 79% 0.00 in 0 W/m2
03:58 44.2 °F 38.1 °F 29.93 in West 1.0 mph 2.0 mph 79% 0.00 in 0 W/m2
04:04 44.2 °F 37.4 °F 29.93 in WNW 2.0 mph 3.0 mph 77% 0.00 in 0 W/m2
04:10 44.2 °F 37.4 °F 29.93 in West 2.0 mph 2.0 mph 77% 0.00 in 0 W/m2
04:16 44.1 °F 37.3 °F 29.93 in Calm   2.0 mph 77% 0.00 in 0 W/m2
04:22 44.1 °F 37.3 °F 29.93 in WNW 1.0 mph 2.0 mph 77% 0.00 in 0 W/m2
04:28 44.0 °F 36.9 °F 29.93 in West 1.0 mph 2.0 mph 76% 0.00 in 0 W/m2
04:34 44.0 °F 36.6 °F 29.93 in WNW 1.0 mph 2.0 mph 75% 0.00 in 0 W/m2
04:40 43.9 °F 36.1 °F 29.93 in NW 1.0 mph 1.0 mph 74% 0.00 in 0 W/m2
04:46 43.9 °F 36.1 °F 29.93 in NW 1.0 mph 2.0 mph 74% 0.00 in 0 W/m2
04:52 43.8 °F 36.4 °F 29.93 in NW 1.0 mph 1.0 mph 75% 0.00 in 0 W/m2
04:58 43.7 °F 36.3 °F 29.92 in Calm   1.0 mph 75% 0.00 in 0 W/m2
05:04 43.6 °F 36.2 °F 29.93 in WNW 1.0 mph 2.0 mph 75% 0.00 in 0 W/m2
05:10 43.5 °F 35.8 °F 29.93 in NW 1.0 mph 2.0 mph 74% 0.00 in 0 W/m2
05:16 43.5 °F 36.1 °F 29.93 in WNW 2.0 mph 4.0 mph 75% 0.00 in 0 W/m2
05:22 43.4 °F 36.0 °F 29.93 in NW 2.0 mph 3.0 mph 75% 0.00 in 0 W/m2
05:28 43.4 °F 36.0 °F 29.93 in NW 3.0 mph 4.0 mph 75% 0.00 in 0 W/m2
05:34 43.3 °F 35.9 °F 29.93 in WNW 3.0 mph 3.0 mph 75% 0.00 in 0 W/m2
05:40 43.2 °F 35.8 °F 29.94 in NNW 2.0 mph 6.0 mph 75% 0.00 in 0 W/m2
05:46 43.1 °F 36.0 °F 29.94 in WNW 2.0 mph 6.0 mph 76% 0.00 in 0 W/m2
05:52 43.1 °F 36.0 °F 29.94 in West 3.0 mph 3.0 mph 76% 0.00 in 0 W/m2
05:58 42.9 °F 35.9 °F 29.94 in WNW 3.0 mph 4.0 mph 76% 0.00 in 0 W/m2
06:04 42.9 °F 35.9 °F 29.94 in NW 3.0 mph 3.0 mph 76% 0.00 in 0 W/m2
06:10 42.9 °F 35.9 °F 29.94 in NW 3.0 mph 3.0 mph 76% 0.00 in 0 W/m2
06:16 42.8 °F 35.8 °F 29.94 in WNW 3.0 mph 3.0 mph 76% 0.00 in 0 W/m2
06:22 42.8 °F 36.1 °F 29.94 in WNW 2.0 mph 3.0 mph 77% 0.00 in 0 W/m2
06:28 42.8 °F 35.8 °F 29.95 in WNW 2.0 mph 3.0 mph 76% 0.00 in 0 W/m2
06:34 42.8 °F 36.1 °F 29.95 in NW 2.0 mph 2.0 mph 77% 0.00 in 0 W/m2
06:39 42.8 °F 36.1 °F 29.96 in WNW 2.0 mph 2.0 mph 77% 0.00 in 7 W/m2
06:46 42.8 °F 36.1 °F 29.96 in SW 1.0 mph 2.0 mph 77% 0.00 in 9 W/m2
06:52 42.8 °F 36.1 °F 29.95 in WNW 2.0 mph 3.0 mph 77% 0.00 in 14 W/m2
06:58 42.8 °F 36.1 °F 29.96 in WNW 2.0 mph 3.0 mph 77% 0.00 in 18 W/m2
07:04 42.9 °F 36.2 °F 29.96 in NW 2.0 mph 2.0 mph 77% 0.00 in 16 W/m2
07:10 42.9 °F 36.2 °F 29.96 in WNW 2.0 mph 2.0 mph 77% 0.00 in 19 W/m2
07:16 42.9 °F 36.2 °F 29.96 in North 2.0 mph 5.0 mph 77% 0.00 in 19 W/m2
07:22 42.9 °F 36.2 °F 29.97 in NW 2.0 mph 3.0 mph 77% 0.00 in 19 W/m2
07:28 43.0 °F 36.3 °F 29.97 in NW 2.0 mph 4.0 mph 77% 0.00 in 21 W/m2
07:34 43.0 °F 36.3 °F 29.96 in WNW 2.0 mph 3.0 mph 77% 0.00 in 19 W/m2
07:40 43.0 °F 36.3 °F 29.96 in WNW 2.0 mph 2.0 mph 77% 0.00 in 37 W/m2
07:46 43.0 °F 36.3 °F 29.97 in West 2.0 mph 2.0 mph 77% 0.00 in 46 W/m2
07:52 43.1 °F 36.4 °F 29.97 in NW 2.0 mph 2.0 mph 77% 0.00 in 53 W/m2
07:58 43.2 °F 36.5 °F 29.97 in NW 2.0 mph 2.0 mph 77% 0.00 in 60 W/m2
08:04 43.3 °F 36.6 °F 29.98 in SW 2.0 mph 3.0 mph 77% 0.00 in 53 W/m2
08:10 43.3 °F 36.6 °F 29.98 in West 2.0 mph 3.0 mph 77% 0.00 in 49 W/m2
08:16 43.3 °F 36.6 °F 29.97 in WNW 2.0 mph 3.0 mph 77% 0.00 in 58 W/m2
08:22 43.4 °F 36.7 °F 29.97 in NW 2.0 mph 3.0 mph 77% 0.00 in 72 W/m2
08:28 43.4 °F 36.7 °F 29.97 in WSW 2.0 mph 3.0 mph 77% 0.00 in 84 W/m2
08:34 43.5 °F 36.8 °F 29.96 in WSW 2.0 mph 2.0 mph 77% 0.00 in 90 W/m2
08:40 43.7 °F 37.0 °F 29.96 in SW 2.0 mph 4.0 mph 77% 0.00 in 91 W/m2
08:46 43.7 °F 37.0 °F 29.96 in West 2.0 mph 4.0 mph 77% 0.00 in 102 W/m2
08:52 43.8 °F 37.1 °F 29.98 in WSW 2.0 mph 3.0 mph 77% 0.00 in 109 W/m2
08:58 43.9 °F 37.2 °F 29.98 in NW 2.0 mph 4.0 mph 77% 0.00 in 81 W/m2
09:06 44.0 °F 37.3 °F 29.98 in SW 1.0 mph 2.0 mph 77% 0.00 in 62 W/m2
09:12 43.9 °F 36.8 °F 29.98 in West 1.0 mph 5.0 mph 76% 0.00 in 42 W/m2
09:18 43.8 °F 36.7 °F 29.98 in WNW 3.0 mph 5.0 mph 76% 0.00 in 37 W/m2
09:24 43.7 °F 36.6 °F 29.98 in NW 3.0 mph 3.0 mph 76% 0.00 in 49 W/m2
09:30 43.7 °F 36.6 °F 29.98 in NW 2.0 mph 2.0 mph 76% 0.00 in 83 W/m2
09:36 43.7 °F 37.0 °F 29.98 in WNW 3.0 mph 6.0 mph 77% 0.00 in 67 W/m2
09:42 43.9 °F 37.2 °F 29.97 in SW 2.0 mph 2.0 mph 77% 0.00 in 102 W/m2
09:48 43.8 °F 36.7 °F 29.98 in West 2.0 mph 2.0 mph 76% 0.00 in 130 W/m2
09:54 44.0 °F 36.6 °F 29.98 in WSW 3.0 mph 3.0 mph 75% 0.00 in 318 W/m2
10:00 45.2 °F 37.4 °F 29.98 in SSW 2.0 mph 4.0 mph 74% 0.00 in 278 W/m2
10:06 45.0 °F 36.9 °F 29.98 in West 3.0 mph 7.0 mph 73% 0.00 in 220 W/m2
10:12 44.9 °F 37.5 °F 29.98 in WNW 4.0 mph 4.0 mph 75% 0.00 in 218 W/m2
10:18 44.8 °F 37.4 °F 29.98 in WNW 3.0 mph 4.0 mph 75% 0.00 in 141 W/m2
10:26 44.6 °F 37.2 °F 29.99 in West 3.0 mph 5.0 mph 75% 0.00 in 251 W/m2
10:32 44.8 °F 37.4 °F 29.99 in West 3.0 mph 3.0 mph 75% 0.00 in 153 W/m2
10:38 44.7 °F 37.6 °F 29.99 in West 3.0 mph 6.0 mph 76% 0.00 in 190 W/m2
10:44 44.6 °F 37.2 °F 29.99 in West 4.0 mph 5.0 mph 75% 0.00 in 165 W/m2
10:50 44.3 °F 37.2 °F 29.99 in WSW 5.0 mph 5.0 mph 76% 0.00 in 181 W/m2
10:56 44.3 °F 37.5 °F 29.99 in WNW 4.0 mph 5.0 mph 77% 0.00 in 141 W/m2
11:02 44.2 °F 37.8 °F 29.99 in WNW 3.0 mph 6.0 mph 78% 0.00 in 156 W/m2
11:08 44.1 °F 37.7 °F 29.99 in NW 3.0 mph 6.0 mph 78% 0.00 in 171 W/m2
11:14 44.2 °F 38.1 °F 29.99 in WNW 3.0 mph 6.0 mph 79% 0.00 in 179 W/m2
11:20 44.3 °F 38.2 °F 29.99 in WNW 3.0 mph 3.0 mph 79% 0.00 in 204 W/m2
11:26 44.7 °F 38.6 °F 29.99 in WNW 2.0 mph 4.0 mph 79% 0.00 in 288 W/m2
11:32 45.3 °F 39.2 °F 29.99 in WNW 2.0 mph 5.0 mph 79% 0.00 in 225 W/m2
11:38 45.6 °F 39.1 °F 29.99 in West 2.0 mph 7.0 mph 78% 0.00 in 325 W/m2
11:44 45.8 °F 39.0 °F 29.99 in WNW 3.0 mph 5.0 mph 77% 0.00 in 373 W/m2
11:50 46.1 °F 39.0 °F 29.99 in NW 3.0 mph 3.0 mph 76% 0.00 in 195 W/m2
11:56 46.1 °F 39.0 °F 29.99 in NW 2.0 mph 7.0 mph 76% 0.00 in 234 W/m2
12:02 46.3 °F 39.1 °F 29.99 in West 4.0 mph 6.0 mph 76% 0.00 in 371 W/m2
12:08 46.6 °F 39.1 °F 29.99 in NW 3.0 mph 7.0 mph 75% 0.00 in 221 W/m2
12:14 46.7 °F 38.9 °F 29.99 in WNW 3.0 mph 4.0 mph 74% 0.00 in 369 W/m2
12:20 47.0 °F 39.1 °F 29.98 in NW 3.0 mph 3.0 mph 74% 0.00 in 207 W/m2
12:26 46.5 °F 39.0 °F 29.98 in NW 3.0 mph 4.0 mph 75% 0.00 in 195 W/m2
12:32 46.1 °F 38.6 °F 29.98 in WNW 3.0 mph 4.0 mph 75% 0.00 in 260 W/m2
12:38 46.3 °F 38.8 °F 29.99 in NNW 4.0 mph 4.0 mph 75% 0.00 in 285 W/m2
12:44 46.2 °F 39.1 °F 29.99 in WNW 4.0 mph 6.0 mph 76% 0.00 in 179 W/m2
12:49 45.3 °F 38.8 °F 29.99 in NW 5.0 mph 6.0 mph 78% 0.00 in 165 W/m2
12:56 44.7 °F 38.6 °F 29.99 in WNW 5.0 mph 7.0 mph 79% 0.00 in 292 W/m2
13:02 45.0 °F 39.2 °F 29.99 in WNW 4.0 mph 5.0 mph 80% 0.00 in 302 W/m2
13:04 45.0 °F 39.2 °F 29.99 in NNW 4.0 mph 5.0 mph 80% 0.00 in 287 W/m2
13:10 45.1 °F 39.6 °F 29.99 in NW 5.0 mph 5.0 mph 81% 0.00 in 737 W/m2
13:16 46.0 °F 39.9 °F 30.00 in West 5.0 mph 7.0 mph 79% 0.00 in 267 W/m2
13:22 45.2 °F 39.1 °F 30.00 in West 5.0 mph 5.0 mph 79% 0.00 in 381 W/m2
13:28 45.7 °F 40.2 °F 29.99 in West 4.0 mph 8.0 mph 81% 0.00 in 424 W/m2
13:34 46.0 °F 39.5 °F 29.99 in NW 4.0 mph 7.0 mph 78% 0.00 in 378 W/m2
13:40 46.6 °F 39.8 °F 29.99 in West 4.0 mph 4.0 mph 77% 0.00 in 374 W/m2
13:46 46.3 °F 39.1 °F 29.99 in WNW 4.0 mph 4.0 mph 76% 0.00 in 417 W/m2
13:52 47.3 °F 40.1 °F 29.99 in NNW 4.0 mph 7.0 mph 76% 0.00 in 450 W/m2
13:58 47.1 °F 38.5 °F 29.99 in WNW 4.0 mph 7.0 mph 72% 0.00 in 464 W/m2
14:04 47.0 °F 38.1 °F 29.99 in WNW 4.0 mph 4.0 mph 71% 0.00 in 598 W/m2
14:10 47.4 °F 38.5 °F 29.99 in NNE 5.0 mph 5.0 mph 71% 0.00 in 181 W/m2
14:16 46.7 °F 38.1 °F 30.00 in WNW 5.0 mph 5.0 mph 72% 0.00 in 171 W/m2
14:22 46.2 °F 37.7 °F 30.00 in NW 4.0 mph 4.0 mph 72% 0.00 in 176 W/m2
14:28 46.2 °F 37.7 °F 30.00 in NW 3.0 mph 4.0 mph 72% 0.00 in 148 W/m2
14:34 46.3 °F 38.1 °F 30.01 in NNW 3.0 mph 3.0 mph 73% 0.00 in 156 W/m2
14:40 46.2 °F 37.3 °F 30.01 in WNW 3.0 mph 3.0 mph 71% 0.00 in 167 W/m2
14:46 46.2 °F 37.0 °F 30.01 in WNW 3.0 mph 5.0 mph 70% 0.00 in 213 W/m2
14:52 46.5 °F 38.0 °F 30.00 in NW 3.0 mph 4.0 mph 72% 0.00 in 251 W/m2
14:58 46.6 °F 37.3 °F 30.00 in NW 4.0 mph 5.0 mph 70% 0.00 in 274 W/m2
15:03 46.7 °F 37.1 °F 30.00 in NNW 4.0 mph 6.0 mph 69% 0.00 in 292 W/m2
15:10 46.7 °F 37.1 °F 30.01 in WNW 4.0 mph 4.0 mph 69% 0.00 in 295 W/m2
15:16 47.1 °F 37.4 °F 30.01 in West 3.0 mph 4.0 mph 69% 0.00 in 250 W/m2
15:22 47.1 °F 37.1 °F 30.01 in NW 3.0 mph 4.0 mph 68% 0.00 in 285 W/m2
15:28 46.9 °F 36.1 °F 30.01 in NW 4.0 mph 4.0 mph 66% 0.00 in 338 W/m2
15:34 47.2 °F 37.2 °F 30.01 in NNW 4.0 mph 7.0 mph 68% 0.00 in 378 W/m2
15:40 47.8 °F 37.7 °F 30.00 in NNW 4.0 mph 4.0 mph 68% 0.00 in 422 W/m2
15:46 47.9 °F 37.1 °F 30.00 in NW 4.0 mph 5.0 mph 66% 0.00 in 295 W/m2
15:52 47.8 °F 37.0 °F 30.00 in West 4.0 mph 8.0 mph 66% 0.00 in 236 W/m2
15:58 47.6 °F 36.8 °F 30.00 in WNW 3.0 mph 8.0 mph 66% 0.00 in 274 W/m2
16:04 47.8 °F 37.0 °F 30.00 in NW 3.0 mph 3.0 mph 66% 0.00 in 338 W/m2
16:10 47.9 °F 37.1 °F 30.01 in NW 3.0 mph 5.0 mph 66% 0.00 in 295 W/m2
16:16 48.1 °F 36.9 °F 30.01 in NW 3.0 mph 5.0 mph 65% 0.00 in 318 W/m2
16:22 48.2 °F 37.0 °F 30.01 in NW 2.0 mph 4.0 mph 65% 0.00 in 315 W/m2
16:28 48.2 °F 36.6 °F 30.01 in WNW 3.0 mph 4.0 mph 64% 0.00 in 323 W/m2
16:34 48.3 °F 36.3 °F 30.01 in WNW 3.0 mph 5.0 mph 63% 0.00 in 436 W/m2
16:40 48.4 °F 37.2 °F 30.02 in West 3.0 mph 3.0 mph 65% 0.00 in 373 W/m2
16:46 48.3 °F 36.3 °F 30.02 in West 3.0 mph 5.0 mph 63% 0.00 in 336 W/m2
16:52 48.4 °F 36.4 °F 30.02 in WNW 3.0 mph 3.0 mph 63% 0.00 in 297 W/m2
16:58 48.6 °F 36.6 °F 30.02 in NW 3.0 mph 3.0 mph 63% 0.00 in 359 W/m2
17:04 48.8 °F 37.2 °F 30.02 in NNW 3.0 mph 5.0 mph 64% 0.00 in 302 W/m2
17:10 48.6 °F 37.0 °F 30.01 in NW 3.0 mph 3.0 mph 64% 0.00 in 287 W/m2
17:16 48.5 °F 36.9 °F 30.01 in NNW 3.0 mph 3.0 mph 64% 0.00 in 315 W/m2
17:22 48.6 °F 36.2 °F 30.01 in NNW 4.0 mph 5.0 mph 62% 0.00 in 367 W/m2
17:28 49.0 °F 37.3 °F 30.01 in West 3.0 mph 5.0 mph 64% 0.00 in 401 W/m2
17:34 49.2 °F 37.1 °F 30.01 in WNW 3.0 mph 3.0 mph 63% 0.00 in 301 W/m2
17:40 49.6 °F 36.7 °F 30.01 in WNW 3.0 mph 3.0 mph 61% 0.00 in 209 W/m2
17:46 49.6 °F 36.7 °F 30.01 in NNW 2.0 mph 4.0 mph 61% 0.00 in 258 W/m2
17:52 49.8 °F 36.9 °F 30.02 in WNW 2.0 mph 3.0 mph 61% 0.00 in 190 W/m2
17:58 49.5 °F 36.2 °F 30.02 in West 2.0 mph 4.0 mph 60% 0.00 in 209 W/m2
18:04 49.4 °F 36.1 °F 30.01 in WNW 3.0 mph 6.0 mph 60% 0.00 in 146 W/m2
18:10 49.0 °F 36.5 °F 30.01 in WNW 3.0 mph 4.0 mph 62% 0.00 in 185 W/m2
18:16 49.2 °F 36.7 °F 30.01 in WNW 3.0 mph 4.0 mph 62% 0.00 in 199 W/m2
18:22 49.3 °F 36.0 °F 30.01 in WNW 3.0 mph 3.0 mph 60% 0.00 in 162 W/m2
18:28 49.4 °F 36.1 °F 30.01 in NW 2.0 mph 3.0 mph 60% 0.00 in 105 W/m2
18:34 49.5 °F 36.2 °F 30.01 in NW 2.0 mph 2.0 mph 60% 0.00 in 111 W/m2
18:40 49.4 °F 36.1 °F 30.01 in WNW 2.0 mph 4.0 mph 60% 0.00 in 102 W/m2
18:46 49.2 °F 35.9 °F 30.01 in NNW 3.0 mph 4.0 mph 60% 0.00 in 63 W/m2
18:52 49.3 °F 36.4 °F 30.01 in WNW 1.0 mph 3.0 mph 61% 0.00 in 69 W/m2
18:58 49.0 °F 35.3 °F 30.01 in WNW 2.0 mph 4.0 mph 59% 0.00 in 102 W/m2
19:04 48.8 °F 35.1 °F 30.01 in WNW 2.0 mph 2.0 mph 59% 0.00 in 30 W/m2
19:10 48.5 °F 35.7 °F 30.01 in WNW 1.0 mph 1.0 mph 61% 0.00 in 25 W/m2
19:16 48.0 °F 36.0 °F 30.01 in Calm   1.0 mph 63% 0.00 in 62 W/m2
19:22 47.7 °F 35.3 °F 30.01 in Calm     62% 0.00 in 28 W/m2
19:28 47.6 °F 35.6 °F 30.02 in Calm     63% 0.00 in 26 W/m2
19:34 47.4 °F 35.4 °F 30.02 in Calm   1.0 mph 63% 0.00 in 23 W/m2
19:40 47.2 °F 35.6 °F 30.02 in Calm     64% 0.00 in 11 W/m2
19:46 47.0 °F 35.4 °F 30.02 in Calm     64% 0.00 in 7 W/m2
19:52 46.7 °F 35.6 °F 30.02 in Calm     65% 0.00 in 5 W/m2
19:58 46.3 °F 35.6 °F 30.02 in Calm     66% 0.00 in 0 W/m2
20:06 45.8 °F 35.5 °F 30.03 in Calm     67% 0.00 in 0 W/m2
20:12 45.4 °F 35.8 °F 30.03 in Calm     69% 0.00 in 0 W/m2
20:18 45.0 °F 35.8 °F 30.03 in Calm     70% 0.00 in 0 W/m2
20:24 44.7 °F 35.5 °F 30.03 in Calm     70% 0.00 in 0 W/m2
20:30 44.3 °F 35.8 °F 30.03 in Calm     72% 0.00 in 0 W/m2
20:36 44.0 °F 35.9 °F 30.04 in Calm     73% 0.00 in 0 W/m2
20:42 43.5 °F 35.8 °F 30.04 in Calm     74% 0.00 in 0 W/m2
20:48 43.1 °F 35.7 °F 30.04 in Calm     75% 0.00 in 0 W/m2
20:54 42.8 °F 35.4 °F 30.04 in Calm     75% 0.00 in 0 W/m2
21:00 42.4 °F 35.4 °F 30.04 in Calm     76% 0.00 in 0 W/m2
21:06 42.1 °F 35.1 °F 30.04 in Calm     76% 0.00 in 0 W/m2
21:12 41.9 °F 35.5 °F 30.04 in Calm     78% 0.00 in 0 W/m2
21:18 41.8 °F 36.4 °F 30.04 in Calm     81% 0.00 in 0 W/m2
21:24 41.6 °F 36.5 °F 30.04 in Calm     82% 0.00 in 0 W/m2
21:29 41.3 °F 36.2 °F 30.05 in Calm     82% 0.00 in 0 W/m2
21:36 41.1 °F 36.3 °F 30.04 in Calm     83% 0.00 in 0 W/m2
21:42 40.9 °F 36.4 °F 30.05 in Calm     84% 0.00 in 0 W/m2
21:48 40.8 °F 36.3 °F 30.05 in Calm     84% 0.00 in 0 W/m2
21:54 40.7 °F 36.5 °F 30.05 in Calm     85% 0.00 in 0 W/m2
22:00 40.4 °F 36.2 °F 30.06 in Calm     85% 0.00 in 0 W/m2
22:06 40.0 °F 35.9 °F 30.06 in Calm     85% 0.00 in 0 W/m2
22:12 39.6 °F 35.2 °F 30.06 in Calm     84% 0.00 in 0 W/m2
22:18 39.3 °F 35.2 °F 30.06 in Calm     85% 0.00 in 0 W/m2
22:24 39.0 °F 34.9 °F 30.06 in Calm     85% 0.00 in 0 W/m2
22:30 38.9 °F 34.8 °F 30.06 in Calm     85% 0.00 in 0 W/m2
22:36 38.6 °F 34.8 °F 30.06 in Calm     86% 0.00 in 0 W/m2
22:42 38.5 °F 34.7 °F 30.06 in Calm     86% 0.00 in 0 W/m2
22:48 38.3 °F 34.5 °F 30.06 in Calm     86% 0.00 in 0 W/m2
22:54 38.2 °F 34.7 °F 30.06 in Calm     87% 0.00 in 0 W/m2
23:00 38.1 °F 34.6 °F 30.06 in Calm     87% 0.00 in 0 W/m2
23:06 38.0 °F 34.5 °F 30.06 in Calm     87% 0.00 in 0 W/m2
23:12 37.9 °F 34.4 °F 30.06 in Calm     87% 0.00 in 0 W/m2
23:18 37.6 °F 34.1 °F 30.05 in Calm     87% 0.00 in 0 W/m2
23:24 37.4 °F 33.9 °F 30.05 in Calm     87% 0.00 in 0 W/m2
23:30 37.1 °F 33.9 °F 30.05 in Calm     88% 0.00 in 0 W/m2
23:36 36.8 °F 33.6 °F 30.05 in Calm     88% 0.00 in 0 W/m2
23:42 36.6 °F 33.4 °F 30.05 in Calm     88% 0.00 in 0 W/m2
23:48 36.3 °F 33.1 °F 30.06 in Calm     88% 0.00 in 0 W/m2
23:54 36.0 °F 32.8 °F 30.06 in Calm     88% 0.00 in 0 W/m2
Country Meadow, Clay, NY, USA
Compliments of Weather Underground - 2 mb